Regional Weather Roundup
Issued by NWS Huntsville, AL

Home | Current Version | Previous Version | Text Only | Print | Product List | Glossary On
Versions: 1 2 3 4 5 6 7 8 9 10 11 12 13 14 15 16 17 18 19 20 21 22 23 24 25 26 27
000
ASUS44 KHUN 240010
RWRHUN

WEATHER ROUNDUP FOR THE TENNESSEE VALLEY
NATIONAL WEATHER SERVICE HUNTSVILLE AL
700 PM CDT MON OCT 23 2017

ALZ001>004-240100-
NORTHWEST ALABAMA

CITY           SKY/WX    TMP DP  RH WIND       PRES   REMARKS
COURTLAND HCN    N/A     54 N/A N/A W6          N/A
RUSSELLVILLE     N/A     54 N/A N/A MISG        N/A
SHOALS AIRPORT CLEAR     56  47  71 S6        29.96R
6HR MIN TEMP:  56; 6HR MAX TEMP:  66;

SHOALS TVA RES   N/A     52 N/A N/A MISG        N/A
$$

ALZ005>007-016-240100-
NORTH CENTRAL ALABAMA

CITY           SKY/WX    TMP DP  RH WIND       PRES   REMARKS
CULLMAN AG STN   N/A     54 N/A N/A W7          N/A
DECATUR AP     CLEAR     57  51  80 SW5       29.96R
6HR MIN TEMP:  57; 6HR MAX TEMP:  62;

HUNTSVILLE AP  CLEAR     55  51  86 SW3       29.96R
6HR MIN TEMP:  55; 6HR MAX TEMP:  63;

MERIDIANVILLE  CLEAR     55  50  82 CALM      29.96R
REDSTONE ARSN  CLEAR     55  50  84 SW3       29.95R
VINEMONT AP    FAIR      52  50  93 CALM      29.99S
$$

ALZ008>010-240100-
NORTHEAST ALABAMA

CITY           SKY/WX    TMP DP  RH WIND       PRES   REMARKS
ALBERTVILLE    CLEAR     54  54 100 SW6       29.97R
FORT PAYNE     MOCLDY    55  50  82 W6        29.95R
SCOTTSBORO AP  MOCLDY    57  54  88 W6        29.96R
SCOTTSBORO HCN   N/A     57 N/A N/A MISG        N/A
VALLEY HEAD      N/A     57 N/A N/A MISG        N/A
$$

TNZ076-096-097-240100-
SOUTHEASTERN MIDDLE TENNESSEE

CITY           SKY/WX    TMP DP  RH WIND       PRES   REMARKS
TULLAHOMA      CLEAR     48  46  93 SW3       29.96R
WINCHESTER     MOCLDY    55  50  82 W6          N/A
$$

...SURROUNDING SITES...

CITY           SKY/WX    TMP DP  RH WIND       PRES   REMARKS
ATLANTA        PTCLDY    62  54  74 W12       29.91R
ANNISTON       CLEAR     57  51  80 W6        29.97R
BIRMINGHAM     MOCLDY    57  52  83 W5        30.01R
CHATTANOOGA    DRIZZLE   59  52  77 SW13      29.94R
CORINTH        FAIR      54  48  82 CALM      29.94R
DALTON         CLOUDY    61  52  72 CALM      29.94R
GADSDEN        CLEAR     57  53  86 W7          N/A
GOLDEN TRNGL   PTCLDY    57  47  69 CALM      29.99R
HALEYVILLE     FAIR      52  51  97 S3        29.99S
JACKSON TN     CLEAR     57  49  74 S7        29.90S
MEMPHIS        PTCLDY    63  45  51 SW7       29.91S
NASHVILLE      PTCLDY    54  48  80 SW7       29.90R
OXFORD MS      FAIR      55  46  71 CALM      29.96S
ROME           CLOUDY    61  53  75 W9        29.93R
SAVANNAH       CLEAR     52  52 100 CALM      29.92R
SELMER         CLEAR     54  48  82 SW5       29.92S
TUPELO         CLEAR     59  44  57 CALM      29.96R
TUSCALOOSA     CLEAR     57  56  96 CALM      29.99S
$$

...GULF COAST WEATHER...

CITY           SKY/WX    TMP DP  RH WIND       PRES   REMARKS
GULFPORT       CLEAR     64  51  62 N3        30.00R
PASCAGOULA     CLEAR     65  49  56 NW5       29.99R
MOBILE         CLEAR     63  51  65 N5        30.00R
GULF SHORES    CLEAR     64  55  72 W6        29.98R
PENSACOLA      CLEAR     66  53  63 N6        29.97R
DESTIN         PTCLDY    71  54  54 N10       29.96R
PANAMA CITY    CLEAR     70  56  59 N6        29.93R
APPALACHICOLA    N/A    N/A N/A N/A MISG      29.92R
$$





USA.gov is the U.S. government's official web portal to all federal, state and local government web resources and services.